Grey Islet, British Columbia

5:12 AM PST on February 26, 2017 (GMT -0800)
Grey Islet

Weather History for CWEK - October, 2012

Change the Weather History Date:

Saturday, October 20, 2012

  Actual Average Record
Temperature  
Mean Temperature 40 °F -  
Max Temperature 44 °F - - ()
Min Temperature 37 °F - - ()
Degree Days  
Heating Degree Days 24    
Moisture  
Dew Point 38 °F    
Average Humidity 87    
Maximum Humidity 96    
Minimum Humidity 71    
Precipitation  
Precipitation 0.00 in - - ()
Sea Level Pressure  
Sea Level Pressure 29.70 in    
Wind  
Wind Speed 16 mph ()    
Max Wind Speed 32 mph    
Max Gust Speed -    
T = Trace of Precipitation, MM = Missing Value Source: Averaged Metar Reports

Daily Weather History Graph

Daily Weather History Graph

Search for Another Location

Airport or City:

Trip Planner

Search our weather history database for the weather conditions in past years. The results will help you decide how hot, cold, wet, or windy it might be!

Date:

Astronomy

Oct. 20, 2012 Rise Set
Actual Time 8:22 AM PDT 6:31 PM PDT
Civil Twilight 7:45 AM PDT 7:08 PM PDT
Nautical Twilight 7:04 AM PDT 7:49 PM PDT
Astronomical Twilight 6:22 AM PDT 8:31 PM PDT
Moon 2:32 PM PDT (10/20) 10:59 PM PDT (10/20)
Length of Visible Light 11h 22m
Length of Day
10h 08m
Waxing Crescent, 35% of the Moon is Illuminated
Oct 20
Waxing Crescent
Oct 21
First Quarter
Oct 29
Full
Nov 6
Last Quarter
Nov 13
New

Hourly Weather History & Observations

Time (PDT) Temp. Windchill Dew Point Humidity Pressure Visibility Wind Dir Wind Speed Gust Speed Precip Events Conditions
12:00 AM 40.5 °F 35.1 °F 36.5 °F 86% 29.65 in - SSE 8.1 mph - N/A   Unknown
1:00 AM 39.4 °F 32.3 °F 37.9 °F 95% 29.65 in - East 11.5 mph - N/A   Unknown
2:00 AM 39.4 °F 32.3 °F 38.1 °F 95% 29.66 in - East 11.5 mph - N/A   Unknown
3:00 AM 39.4 °F 31.4 °F 38.3 °F 96% 29.66 in - ENE 13.8 mph - N/A   Unknown
4:00 AM 39.6 °F 31.3 °F 38.1 °F 95% 29.66 in - East 15.0 mph - N/A   Unknown
5:00 AM 40 °F - 39 °F 94% 29.66 in - ENE 16.1 mph - -  
5:00 AM 39.9 °F 31.4 °F 38.8 °F 96% 29.66 in - ENE 16.1 mph - N/A   Unknown
6:00 AM 39.9 °F 31.4 °F 38.7 °F 95% 29.67 in - ENE 16.1 mph - N/A   Unknown
7:00 AM 39.6 °F 30.6 °F 37.9 °F 94% 29.67 in - ENE 17.3 mph - N/A   Unknown
8:00 AM 39.9 °F 31.1 °F 38.8 °F 96% 29.68 in - ENE 17.3 mph - N/A   Unknown
9:00 AM 40.1 °F 30.7 °F 38.5 °F 94% 29.69 in - ENE 19.6 mph - N/A   Unknown
10:00 AM 40.5 °F 30.9 °F 38.8 °F 94% 29.69 in - ENE 20.7 mph - N/A   Unknown
11:00 AM 41 °F - 38 °F 86% 29.70 in - NE 20.7 mph - -  
11:00 AM 40.6 °F 31.2 °F 38.3 °F 91% 29.70 in - NE 20.7 mph - N/A   Unknown
12:00 PM 41.9 °F 32.3 °F 39.0 °F 90% 29.71 in - ENE 23.0 mph - N/A   Unknown
1:00 PM 42.4 °F 33.3 °F 38.3 °F 85% 29.71 in - ENE 21.9 mph - N/A   Unknown
2:00 PM 42.8 °F 33.5 °F 38.1 °F 84% 29.72 in - NE 23.0 mph - N/A   Unknown
3:00 PM 43.3 °F 34.2 °F 37.9 °F 81% 29.72 in - NE 23.0 mph - N/A   Unknown
4:00 PM 44.1 °F 35.2 °F 37.2 °F 77% 29.72 in - NE 23.0 mph - N/A   Unknown
5:00 PM 44 °F - 38 °F 71% 29.73 in - NE 21.9 mph - -  
5:00 PM 44.2 °F 35.7 °F 37.6 °F 77% 29.73 in - NE 21.9 mph - N/A   Unknown
6:00 PM 43.7 °F 34.5 °F 38.3 °F 81% 29.73 in - NE 24.2 mph - N/A   Unknown
7:00 PM 43.0 °F 33.1 °F 36.7 °F 78% 29.73 in - NE 26.5 mph - N/A   Unknown
9:00 PM 41.9 °F 30.9 °F 36.3 °F 81% 29.73 in - NE 31.1 mph - N/A   Unknown
10:00 PM 41.5 °F 30.2 °F 36.3 °F 82% 29.73 in - NE 32.2 mph - N/A   Unknown
11:00 PM 42 °F - 37 °F 75% 29.74 in - NE 32.2 mph - -  
11:00 PM 41.9 °F 30.7 °F 36.7 °F 82% 29.74 in - NE 32.2 mph - N/A   Unknown